Location: Cormont
(50.5693°N, 1.7416°E)
Time: 11:19:00
(UTC+00:00)

STARLINK-63 - Pass Details

Date: 21 October 2019
Orbit: 549 x 551 km, 53.0° (Epoch: 11 November)

Event Time Altitude Azimuth Distance (km) Brightness Sun altitude
Rises 17:16:20 0° 262° (W) 2,715 10.2 -5.0°
Reaches altitude 10° 17:18:35 10° 265° (W) 1,823 8.2 -5.3°
Maximum altitude 17:22:42 68° 349° (N) 593 3.8 -5.9°
Drops below altitude 10° 17:26:51 10° 73° (ENE) 1,827 5.6 -6.6°
Enters shadow 17:27:12 - 74° (ENE) 1,968 5.8 -6.7°
